Location: ?
(35.4996°N, 139.3166°E)
Time: 19:33:09
(UTC+00:00)

Cosmos 1470 Rocket - Visible Passes

Search period start: 22 July 2024 00:00
Search period end: 01 August 2024 00:00
Orbit: 599 x 631 km, 82.5° (Epoch: 22 July)

Date Brightness Start Highest point End Pass type
(mag) Time Alt. Az. Time Alt. Az. Time Alt. Az.
22 Jul 3.5 19:09:04 10° SSW 19:13:19 64° W 19:17:36 10° N visible
23 Jul 6.2 17:49:21 10° SE 17:51:58 16° E 17:54:37 10° NE visible
24 Jul 5.3 18:04:04 10° SSE 18:07:49 30° E 18:11:34 10° NNE visible
25 Jul 4.0 18:19:31 10° S 18:23:44 59° E 18:27:58 10° NNE visible
26 Jul 3.4 18:36:00 13° SSW 18:39:44 69° W 18:44:02 10° N visible
27 Jul 6.2 17:16:00 10° ESE 17:18:25 15° E 17:20:50 10° NE visible
27 Jul 4.2 18:52:30 13° SW 18:55:49 35° W 18:59:46 10° NNW visible
28 Jul 5.3 17:31:52 17° SE 17:34:15 28° E 17:37:53 10° NNE visible
28 Jul 5.1 19:08:58 10° WSW 19:11:59 19° WNW 19:15:03 10° NNW visible
29 Jul 4.1 17:48:18 30° SSE 17:50:08 54° E 17:54:20 10° NNE visible
30 Jul 3.4 18:04:41 41° SSW 18:06:07 76° W 18:10:25 10° N visible
31 Jul 6.1 16:43:57 13° E 16:44:48 14° E 16:46:57 10° NE visible
31 Jul 4.1 18:21:02 32° WSW 18:22:10 38° W 18:26:12 10° N visible
